| time (UTC) | temp F | wind direction | speed MPH | gust MPH | rain 1hr in | rain 24hr in | rain mn in | humidity % | barometer mb |
| 20260507081912 | 55 | 171 | 0.0 | 0.0 | 0.00 | 0.00 | 0.00 | 87 | 1016.1 |
| 20260507081141 | 55 | 169 | 0.0 | 0.0 | 0.00 | 0.00 | 0.00 | 87 | 1016.1 |
| 20260507080859 | 55 | 183 | 0.0 | 0.0 | 0.00 | 0.00 | 0.00 | 87 | 1016.2 |
| 20260507080130 | 55 | 186 | 0.0 | 0.0 | 0.00 | 0.00 | 0.00 | 87 | 1016.3 |
| 20260507075624 | 55 | 184 | 0.0 | 0.0 | 0.00 | 0.00 | 0.00 | 87 | 1016.3 |
| 20260507075118 | 55 | 198 | 0.0 | 0.0 | 0.00 | 0.00 | 0.00 | 87 | 1016.1 |
| 20260507074611 | 55 | 173 | 0.0 | 0.0 | 0.00 | 0.00 | 0.00 | 86 | 1016.3 |
| 20260507074105 | 55 | 173 | 0.0 | 0.0 | 0.00 | 0.00 | 0.00 | 86 | 1016.4 |
| 20260507073600 | 55 | 173 | 0.0 | 0.0 | 0.00 | 0.00 | 0.00 | 86 | 1016.4 |
| 20260507073053 | 55 | 173 | 0.0 | 0.0 | 0.00 | 0.00 | 0.00 | 86 | 1016.4 |
| 20260507073039 | 55 | 173 | 0.0 | 0.0 | 0.00 | 0.00 | 0.00 | 86 | 1016.4 |
| 20260507072042 | 55 | 170 | 0.0 | 0.0 | 0.00 | 0.00 | 0.00 | 86 | 1016.5 |
| 20260507071535 | 55 | 170 | 0.0 | 2.0 | 0.00 | 0.00 | 0.00 | 86 | 1016.4 |
| 20260507071514 | 55 | 184 | 0.0 | 2.0 | 0.00 | 0.00 | 0.00 | 86 | 1016.3 |
| 20260507070523 | 55 | 176 | 0.0 | 2.0 | 0.00 | 0.00 | 0.00 | 86 | 1016.4 |
| 20260507070015 | 55 | 184 | 0.0 | 2.0 | 0.00 | 0.00 | 0.00 | 85 | 1016.4 |
| 20260507065508 | 55 | 184 | 0.0 | 3.0 | 0.00 | 0.00 | 0.00 | 85 | 1016.4 |
| 20260507065002 | 55 | 171 | 0.0 | 3.0 | 0.00 | 0.00 | 0.00 | 84 | 1016.4 |
| 20260507064456 | 56 | 165 | 0.0 | 0.0 | 0.00 | 0.00 | 0.00 | 84 | 1016.3 |
| 20260507063950 | 56 | 153 | 0.0 | 0.0 | 0.00 | 0.00 | 0.00 | 84 | 1016.3 |
| 20260507063445 | 56 | 132 | 0.0 | 0.0 | 0.00 | 0.00 | 0.00 | 84 | 1016.3 |
| 20260507062938 | 56 | 189 | 0.0 | 0.0 | 0.00 | 0.00 | 0.00 | 84 | 1016.3 |
| 20260507062432 | 56 | 189 | 0.0 | 0.0 | 0.00 | 0.00 | 0.00 | 84 | 1016.4 |
| 20260507061926 | 56 | 189 | 0.0 | 0.0 | 0.00 | 0.00 | 0.00 | 83 | 1016.3 |
| 20260507061420 | 56 | 189 | 0.0 | 0.0 | 0.00 | 0.00 | 0.00 | 83 | 1016.4 |
| 20260507060914 | 56 | 189 | 0.0 | 0.0 | 0.00 | 0.00 | 0.00 | 83 | 1016.4 |
| 20260507060408 | 56 | 189 | 0.0 | 0.0 | 0.00 | 0.00 | 0.00 | 83 | 1016.4 |
| 20260507055903 | 56 | 189 | 0.0 | 0.0 | 0.00 | 0.00 | 0.00 | 83 | 1016.5 |
| 20260507055622 | 56 | 189 | 0.0 | 0.0 | 0.00 | 0.00 | 0.00 | 83 | 1016.4 |
| 20260507054850 | 56 | 189 | 0.0 | 0.0 | 0.00 | 0.00 | 0.00 | 83 | 1016.4 |
| 20260507054345 | 56 | 189 | 0.0 | 0.0 | 0.00 | 0.00 | 0.00 | 83 | 1016.5 |
| 20260507053838 | 56 | 189 | 0.0 | 0.0 | 0.00 | 0.00 | 0.00 | 83 | 1016.5 |
| 20260507053332 | 56 | 189 | 0.0 | 0.0 | 0.00 | 0.00 | 0.00 | 83 | 1016.4 |
| 20260507052827 | 56 | 189 | 0.0 | 0.0 | 0.00 | 0.00 | 0.00 | 83 | 1016.5 |
| 20260507052320 | 56 | 189 | 0.0 | 0.0 | 0.00 | 0.00 | 0.00 | 84 | 1016.5 |
| 20260507051814 | 56 | 189 | 0.0 | 0.0 | 0.00 | 0.00 | 0.00 | 84 | 1016.4 |
| 20260507051308 | 56 | 189 | 0.0 | 0.0 | 0.00 | 0.00 | 0.00 | 84 | 1016.5 |
| 20260507051035 | 56 | 189 | 0.0 | 0.0 | 0.00 | 0.00 | 0.00 | 84 | 1016.5 |
| 20260507050256 | 56 | 189 | 0.0 | 0.0 | 0.00 | 0.00 | 0.00 | 83 | 1016.3 |
| 20260507045750 | 56 | 189 | 0.0 | 0.0 | 0.00 | 0.00 | 0.00 | 83 | 1016.3 |
| 20260507045245 | 56 | 189 | 0.0 | 0.0 | 0.00 | 0.00 | 0.00 | 82 | 1016.3 |
| 20260507044738 | 56 | 189 | 0.0 | 0.0 | 0.00 | 0.00 | 0.00 | 82 | 1016.3 |
| 20260507044450 | 57 | 189 | 0.0 | 0.0 | 0.00 | 0.00 | 0.00 | 82 | 1016.3 |
| 20260507043726 | 57 | 189 | 0.0 | 0.0 | 0.00 | 0.00 | 0.00 | 82 | 1016.3 |
| 20260507043221 | 57 | 189 | 0.0 | 0.0 | 0.00 | 0.00 | 0.00 | 82 | 1016.3 |
| 20260507042940 | 57 | 189 | 0.0 | 0.0 | 0.00 | 0.00 | 0.00 | 82 | 1016.3 |
| 20260507042213 | 57 | 189 | 0.0 | 0.0 | 0.00 | 0.00 | 0.00 | 82 | 1016.3 |
| 20260507041702 | 57 | 189 | 0.0 | 0.0 | 0.00 | 0.00 | 0.00 | 81 | 1016.3 |
| 20260507041202 | 57 | 189 | 0.0 | 0.0 | 0.00 | 0.00 | 0.00 | 81 | 1016.2 |
| 20260507040650 | 57 | 231 | 0.0 | 0.0 | 0.00 | 0.00 | 0.00 | 80 | 1016.2 |
| 20260507040144 | 58 | 231 | 0.0 | 0.0 | 0.00 | 0.00 | 0.00 | 80 | 1016.3 |
| 20260507035905 | 58 | 231 | 0.0 | 0.0 | 0.00 | 0.00 | 0.00 | 79 | 1016.2 |
| 20260507035132 | 58 | 231 | 0.0 | 0.0 | 0.00 | 0.00 | 0.00 | 78 | 1016.1 |
| 20260507034626 | 58 | 231 | 0.0 | 0.0 | 0.00 | 0.00 | 0.00 | 78 | 1016.1 |
| 20260507034120 | 58 | 231 | 0.0 | 0.0 | 0.00 | 0.00 | 0.00 | 78 | 1016.1 |
| 20260507033614 | 58 | 231 | 0.0 | 0.0 | 0.00 | 0.00 | 0.00 | 78 | 1016.2 |
| 20260507033108 | 58 | 213 | 0.0 | 0.0 | 0.00 | 0.00 | 0.00 | 77 | 1016.1 |
| 20260507032602 | 59 | 213 | 0.0 | 1.0 | 0.00 | 0.00 | 0.00 | 77 | 1016.0 |
| 20260507032532 | 59 | 174 | 0.0 | 1.0 | 0.00 | 0.00 | 0.00 | 76 | 1015.9 |
| 20260507031550 | 59 | 174 | 0.0 | 1.0 | 0.00 | 0.00 | 0.00 | 75 | 1015.6 |
| 20260507031533 | 60 | 168 | 0.0 | 1.0 | 0.00 | 0.00 | 0.00 | 75 | 1015.5 |
| 20260507030539 | 60 | 234 | 0.0 | 0.0 | 0.00 | 0.00 | 0.00 | 74 | 1015.4 |
| 20260507030032 | 60 | 234 | 0.0 | 0.0 | 0.00 | 0.00 | 0.00 | 73 | 1015.4 |
| 20260507025526 | 60 | 234 | 0.0 | 3.0 | 0.00 | 0.00 | 0.00 | 72 | 1015.4 |
| 20260507025020 | 60 | 205 | 0.0 | 3.0 | 0.00 | 0.00 | 0.00 | 72 | 1015.4 |
| 20260507024514 | 61 | 229 | 0.0 | 3.0 | 0.00 | 0.00 | 0.00 | 71 | 1015.5 |
| 20260507024234 | 61 | 232 | 0.0 | 3.0 | 0.00 | 0.00 | 0.00 | 70 | 1015.4 |
| 20260507023503 | 62 | 240 | 0.0 | 3.0 | 0.00 | 0.00 | 0.00 | 69 | 1015.4 |
| 20260507022956 | 62 | 236 | 0.0 | 3.0 | 0.00 | 0.00 | 0.00 | 68 | 1015.4 |
| 20260507022452 | 62 | 207 | 0.0 | 3.0 | 0.00 | 0.00 | 0.00 | 68 | 1015.3 |
| 20260507021944 | 63 | 221 | 0.0 | 3.0 | 0.00 | 0.00 | 0.00 | 67 | 1015.2 |
| 20260507021440 | 63 | 219 | 0.0 | 3.0 | 0.00 | 0.00 | 0.00 | 66 | 1015.2 |
| 20260507020933 | 63 | 229 | 1.0 | 7.0 | 0.00 | 0.00 | 0.00 | 66 | 1015.3 |
| 20260507020651 | 64 | 225 | 1.0 | 7.0 | 0.00 | 0.00 | 0.00 | 65 | 1015.2 |
| 20260507020148 | 64 | 220 | 2.0 | 7.0 | 0.00 | 0.00 | 0.00 | 64 | 1015.1 |
| 20260507015414 | 65 | 222 | 2.0 | 7.0 | 0.00 | 0.00 | 0.00 | 64 | 1015.0 |
| 20260507015128 | 65 | 242 | 0.0 | 7.0 | 0.00 | 0.00 | 0.00 | 63 | 1014.9 |
| 20260507014630 | 65 | 251 | 0.0 | 7.0 | 0.00 | 0.00 | 0.00 | 63 | 1015.1 |
| 20260507013856 | 65 | 165 | 1.0 | 7.0 | 0.00 | 0.00 | 0.00 | 63 | 1015.1 |
| 20260507013351 | 65 | 227 | 2.0 | 8.0 | 0.00 | 0.00 | 0.00 | 64 | 1015.0 |
| 20260507013112 | 65 | 221 | 2.0 | 8.0 | 0.00 | 0.00 | 0.00 | 63 | 1015.1 |
| 20260507012338 | 65 | 247 | 2.0 | 8.0 | 0.00 | 0.00 | 0.00 | 62 | 1015.0 |
| 20260507012100 | 65 | 207 | 2.0 | 7.0 | 0.00 | 0.00 | 0.00 | 63 | 1014.9 |
| 20260507011326 | 65 | 227 | 2.0 | 8.0 | 0.00 | 0.00 | 0.00 | 64 | 1014.8 |
| 20260507010820 | 65 | 223 | 2.0 | 8.0 | 0.00 | 0.00 | 0.00 | 65 | 1014.9 |
| 20260507010315 | 65 | 230 | 3.0 | 10.0 | 0.00 | 0.00 | 0.00 | 65 | 1014.8 |
| 20260507005808 | 65 | 53 | 4.0 | 10.0 | 0.00 | 0.00 | 0.00 | 65 | 1014.9 |
| 20260507005305 | 65 | 240 | 4.0 | 10.0 | 0.00 | 0.00 | 0.00 | 65 | 1015.0 |
| 20260507004756 | 66 | 219 | 4.0 | 10.0 | 0.00 | 0.00 | 0.00 | 64 | 1015.0 |
| 20260507004250 | 67 | 251 | 4.0 | 10.0 | 0.00 | 0.00 | 0.00 | 63 | 1015.0 |
| 20260507004010 | 67 | 169 | 4.0 | 9.0 | 0.00 | 0.00 | 0.00 | 63 | 1015.0 |
| 20260507003239 | 67 | 202 | 4.0 | 10.0 | 0.00 | 0.00 | 0.00 | 62 | 1015.0 |
| 20260507002732 | 68 | 231 | 3.0 | 10.0 | 0.00 | 0.00 | 0.00 | 61 | 1014.9 |
| 20260507002226 | 68 | 152 | 2.0 | 8.0 | 0.00 | 0.00 | 0.00 | 61 | 1014.8 |
| 20260507001720 | 68 | 200 | 2.0 | 9.0 | 0.00 | 0.00 | 0.00 | 62 | 1014.8 |
| 20260507001214 | 68 | 229 | 3.0 | 9.0 | 0.00 | 0.00 | 0.00 | 61 | 1014.7 |
| 20260507000914 | 68 | 225 | 4.0 | 10.0 | 0.00 | 0.00 | 0.00 | 61 | 1014.5 |
| 20260507000759 | 68 | 240 | 3.0 | 9.0 | 0.00 | 0.00 | 0.00 | 62 | 1014.6 |
| 20260506235656 | 68 | 240 | 4.0 | 10.0 | 0.00 | 0.00 | 0.00 | 61 | 1014.6 |
| 20260506235150 | 68 | 246 | 4.0 | 10.0 | 0.00 | 0.00 | 0.00 | 61 | 1014.5 |
| 20260506234645 | 68 | 240 | 4.0 | 10.0 | 0.00 | 0.00 | 0.00 | 62 | 1014.5 |
| 20260506234138 | 69 | 243 | 2.0 | 10.0 | 0.00 | 0.00 | 0.00 | 61 | 1014.4 |
| 20260506234121 | 69 | 236 | 2.0 | 10.0 | 0.00 | 0.00 | 0.00 | 62 | 1014.5 |
| 20260506233126 | 69 | 133 | 3.0 | 10.0 | 0.00 | 0.00 | 0.00 | 61 | 1014.4 |
| 20260506232620 | 68 | 236 | 3.0 | 11.0 | 0.00 | 0.00 | 0.00 | 62 | 1014.5 |
| 20260506232115 | 69 | 254 | 2.0 | 11.0 | 0.00 | 0.00 | 0.00 | 62 | 1014.5 |
| 20260506231834 | 68 | 242 | 3.0 | 11.0 | 0.00 | 0.00 | 0.00 | 63 | 1014.5 |
| 20260506231102 | 68 | 271 | 3.0 | 12.0 | 0.00 | 0.00 | 0.00 | 62 | 1014.6 |
| 20260506230556 | 68 | 224 | 3.0 | 12.0 | 0.00 | 0.00 | 0.00 | 62 | 1014.7 |
| 20260506230050 | 68 | 219 | 4.0 | 12.0 | 0.00 | 0.00 | 0.00 | 63 | 1014.7 |
| 20260506225544 | 68 | 271 | 4.0 | 12.0 | 0.00 | 0.00 | 0.00 | 63 | 1014.7 |
| 20260506225521 | 69 | 242 | 4.0 | 13.0 | 0.00 | 0.00 | 0.00 | 61 | 1014.7 |
| 20260506224532 | 69 | 252 | 4.0 | 13.0 | 0.00 | 0.00 | 0.00 | 61 | 1014.8 |
| 20260506224027 | 69 | 246 | 4.0 | 12.0 | 0.00 | 0.00 | 0.00 | 61 | 1014.8 |
| 20260506223520 | 69 | 242 | 4.0 | 13.0 | 0.00 | 0.00 | 0.00 | 61 | 1014.7 |
| 20260506223237 | 69 | 224 | 5.0 | 13.0 | 0.00 | 0.00 | 0.00 | 60 | 1014.8 |
| 20260506222507 | 69 | 210 | 4.0 | 11.0 | 0.00 | 0.00 | 0.00 | 60 | 1014.9 |
| 20260506222002 | 69 | 266 | 4.0 | 11.0 | 0.00 | 0.00 | 0.00 | 61 | 1015.0 |
| 20260506221456 | 69 | 236 | 6.0 | 12.0 | 0.00 | 0.00 | 0.00 | 60 | 1014.9 |
| 20260506221212 | 69 | 312 | 4.0 | 12.0 | 0.00 | 0.00 | 0.00 | 60 | 1014.9 |
| 20260506220444 | 70 | 297 | 4.0 | 11.0 | 0.00 | 0.00 | 0.00 | 60 | 1014.9 |
| 20260506215939 | 70 | 259 | 4.0 | 12.0 | 0.00 | 0.00 | 0.00 | 59 | 1015.0 |
| 20260506215431 | 70 | 238 | 4.0 | 12.0 | 0.00 | 0.00 | 0.00 | 60 | 1015.0 |
| 20260506215152 | 70 | 271 | 4.0 | 13.0 | 0.00 | 0.00 | 0.00 | 59 | 1014.9 |
| 20260506214420 | 71 | 286 | 3.0 | 13.0 | 0.00 | 0.00 | 0.00 | 59 | 1015.0 |
| 20260506213914 | 70 | 250 | 3.0 | 12.0 | 0.00 | 0.00 | 0.00 | 58 | 1015.1 |
| 20260506213409 | 71 | 254 | 2.0 | 10.0 | 0.00 | 0.00 | 0.00 | 57 | 1015.2 |
| 20260506212902 | 70 | 294 | 2.0 | 10.0 | 0.00 | 0.00 | 0.00 | 59 | 1015.2 |
| 20260506212356 | 70 | 240 | 3.0 | 12.0 | 0.00 | 0.00 | 0.00 | 59 | 1015.2 |
| 20260506211850 | 69 | 323 | 4.0 | 12.0 | 0.00 | 0.00 | 0.00 | 59 | 1015.3 |
| 20260506211345 | 69 | 282 | 5.0 | 13.0 | 0.00 | 0.00 | 0.00 | 59 | 1015.5 |
| 20260506210840 | 69 | 259 | 4.0 | 13.0 | 0.00 | 0.00 | 0.00 | 59 | 1015.4 |
| 20260506210603 | 70 | 276 | 2.0 | 9.0 | 0.00 | 0.00 | 0.00 | 60 | 1015.4 |
| 20260506205841 | 69 | 340 | 2.0 | 9.0 | 0.00 | 0.00 | 0.00 | 60 | 1015.5 |
| 20260506205342 | 69 | 267 | 2.0 | 11.0 | 0.00 | 0.00 | 0.00 | 59 | 1015.6 |
| 20260506204842 | 69 | 275 | 3.0 | 11.0 | 0.00 | 0.00 | 0.00 | 59 | 1015.5 |
| 20260506204341 | 69 | 252 | 4.0 | 11.0 | 0.00 | 0.00 | 0.00 | 59 | 1015.5 |
| 20260506204104 | 69 | 198 | 4.0 | 11.0 | 0.00 | 0.00 | 0.00 | 61 | 1015.3 |
| 20260506203609 | 69 | 241 | 6.0 | 13.0 | 0.00 | 0.00 | 0.00 | 61 | 1015.4 |
| 20260506202842 | 69 | 227 | 7.0 | 13.0 | 0.00 | 0.00 | 0.00 | 60 | 1015.6 |
| 20260506202603 | 69 | 270 | 6.0 | 13.0 | 0.00 | 0.00 | 0.00 | 60 | 1015.8 |
| 20260506201843 | 69 | 248 | 5.0 | 13.0 | 0.00 | 0.00 | 0.00 | 59 | 1015.9 |
| 20260506201340 | 70 | 260 | 5.0 | 12.0 | 0.00 | 0.00 | 0.00 | 58 | 1015.9 |
| 20260506200838 | 70 | 251 | 4.0 | 12.0 | 0.00 | 0.00 | 0.00 | 58 | 1015.9 |
| 20260506200607 | 70 | 284 | 3.0 | 10.0 | 0.00 | 0.00 | 0.00 | 56 | 1016.0 |
| 20260506195837 | 70 | 279 | 2.0 | 9.0 | 0.00 | 0.00 | 0.00 | 53 | 1016.1 |
| 20260506195337 | 70 | 277 | 2.0 | 8.0 | 0.00 | 0.00 | 0.00 | 53 | 1016.1 |
| 20260506194836 | 69 | 280 | 1.0 | 8.0 | 0.00 | 0.00 | 0.00 | 54 | 1016.0 |
| 20260506194332 | 69 | 30 | 1.0 | 7.0 | 0.00 | 0.00 | 0.00 | 53 | 1016.2 |
| 20260506193834 | 70 | 271 | 1.0 | 6.0 | 0.00 | 0.00 | 0.00 | 51 | 1016.4 |
| 20260506193333 | 69 | 262 | 0.0 | 5.0 | 0.00 | 0.00 | 0.00 | 52 | 1016.4 |
| 20260506193058 | 69 | 9 | 0.0 | 5.0 | 0.00 | 0.00 | 0.00 | 50 | 1016.3 |
| 20260506192330 | 69 | 16 | 1.0 | 5.0 | 0.00 | 0.00 | 0.00 | 54 | 1016.5 |
| 20260506191836 | 68 | 225 | 1.0 | 4.0 | 0.00 | 0.00 | 0.00 | 52 | 1016.5 |
| 20260506191334 | 69 | 303 | 0.0 | 7.0 | 0.00 | 0.00 | 0.00 | 51 | 1016.5 |
| 20260506190829 | 69 | 0 | 0.0 | 7.0 | 0.00 | 0.00 | 0.00 | 53 | 1016.6 |
| 20260506190330 | 68 | 23 | 1.0 | 7.0 | 0.00 | 0.00 | 0.00 | 52 | 1016.7 |
| 20260506185830 | 68 | 300 | 1.0 | 7.0 | 0.00 | 0.00 | 0.00 | 52 | 1016.7 |
| 20260506185328 | 68 | 12 | 0.0 | 7.0 | 0.00 | 0.00 | 0.00 | 53 | 1016.6 |
| 20260506184826 | 67 | 250 | 0.0 | 4.0 | 0.00 | 0.00 | 0.00 | 54 | 1016.7 |
| 20260506184325 | 67 | 9 | 0.0 | 4.0 | 0.00 | 0.00 | 0.00 | 54 | 1016.8 |
| 20260506183826 | 67 | 300 | 0.0 | 5.0 | 0.00 | 0.00 | 0.00 | 55 | 1016.8 |
| 20260506183809 | 67 | 355 | 1.0 | 5.0 | 0.00 | 0.00 | 0.00 | 54 | 1016.8 |
| 20260506183052 | 66 | 0 | 1.0 | 5.0 | 0.00 | 0.00 | 0.00 | 56 | 1017.1 |
| 20260506182552 | 65 | 15 | 1.0 | 9.0 | 0.00 | 0.00 | 0.00 | 56 | 1017.1 |
| 20260506181825 | 65 | 13 | 1.0 | 9.0 | 0.00 | 0.00 | 0.00 | 56 | 1017.0 |
| 20260506181322 | 65 | 351 | 1.0 | 9.0 | 0.00 | 0.00 | 0.00 | 56 | 1017.0 |
| 20260506180824 | 65 | 211 | 1.0 | 9.0 | 0.00 | 0.00 | 0.00 | 56 | 1017.0 |
| 20260506180323 | 65 | 289 | 1.0 | 8.0 | 0.00 | 0.00 | 0.00 | 57 | 1017.1 |
| 20260506175823 | 66 | 269 | 1.0 | 7.0 | 0.00 | 0.00 | 0.00 | 57 | 1017.1 |
| 20260506175322 | 65 | 258 | 1.0 | 6.0 | 0.00 | 0.00 | 0.00 | 57 | 1017.0 |
| 20260506175052 | 65 | 285 | 1.0 | 6.0 | 0.00 | 0.00 | 0.00 | 58 | 1017.2 |
| 20260506174321 | 65 | 15 | 1.0 | 5.0 | 0.00 | 0.00 | 0.00 | 56 | 1017.3 |
| 20260506173820 | 65 | 43 | 0.0 | 4.0 | 0.00 | 0.00 | 0.00 | 57 | 1017.1 |
| 20260506173323 | 64 | 336 | 0.0 | 4.0 | 0.00 | 0.00 | 0.00 | 58 | 1017.1 |
| 20260506172816 | 64 | 0 | 1.0 | 4.0 | 0.00 | 0.00 | 0.00 | 59 | 1017.1 |
| 20260506172318 | 64 | 244 | 1.0 | 4.0 | 0.00 | 0.00 | 0.00 | 61 | 1017.1 |
| 20260506172041 | 64 | 260 | 1.0 | 4.0 | 0.00 | 0.00 | 0.00 | 61 | 1017.2 |
| 20260506171319 | 64 | 254 | 0.0 | 5.0 | 0.00 | 0.00 | 0.00 | 63 | 1017.2 |
| 20260506171038 | 63 | 303 | 0.0 | 5.0 | 0.00 | 0.00 | 0.00 | 64 | 1017.2 |
| 20260506170316 | 62 | 42 | 1.0 | 7.0 | 0.00 | 0.00 | 0.00 | 66 | 1017.2 |
| 20260506170036 | 62 | 266 | 1.0 | 7.0 | 0.00 | 0.00 | 0.00 | 66 | 1017.3 |
| 20260506165317 | 62 | 241 | 0.0 | 7.0 | 0.00 | 0.00 | 0.00 | 68 | 1017.2 |
| 20260506164823 | 62 | 277 | 0.0 | 7.0 | 0.00 | 0.00 | 0.00 | 70 | 1017.3 |
| 20260506164313 | 61 | 281 | 0.0 | 4.0 | 0.00 | 0.00 | 0.00 | 70 | 1017.2 |
| 20260506163814 | 61 | 311 | 1.0 | 4.0 | 0.00 | 0.00 | 0.00 | 69 | 1017.2 |
| 20260506163804 | 62 | 279 | 1.0 | 4.0 | 0.00 | 0.00 | 0.00 | 67 | 1017.3 |
| 20260506162815 | 61 | 9 | 1.0 | 4.0 | 0.00 | 0.00 | 0.00 | 68 | 1017.3 |
| 20260506162313 | 61 | 261 | 0.0 | 4.0 | 0.00 | 0.00 | 0.00 | 68 | 1017.2 |
| 20260506161813 | 61 | 344 | 0.0 | 3.0 | 0.00 | 0.00 | 0.00 | 67 | 1017.2 |
| 20260506161313 | 60 | 13 | 0.0 | 3.0 | 0.00 | 0.00 | 0.00 | 68 | 1017.1 |
| 20260506160813 | 60 | 321 | 0.0 | 3.0 | 0.00 | 0.00 | 0.00 | 69 | 1017.1 |
| 20260506160314 | 60 | 245 | 0.0 | 3.0 | 0.00 | 0.00 | 0.00 | 70 | 1017.1 |
| 20260506155811 | 60 | 13 | 0.0 | 3.0 | 0.00 | 0.00 | 0.00 | 70 | 1017.1 |
| 20260506155311 | 59 | 64 | 0.0 | 2.0 | 0.00 | 0.00 | 0.00 | 73 | 1017.0 |
| 20260506154809 | 59 | 9 | 0.0 | 2.0 | 0.00 | 0.00 | 0.00 | 74 | 1017.1 |
| 20260506154309 | 59 | 343 | 0.0 | 2.0 | 0.00 | 0.00 | 0.00 | 75 | 1017.1 |
| 20260506153810 | 59 | 327 | 0.0 | 2.0 | 0.00 | 0.00 | 0.00 | 75 | 1017.2 |
| 20260506153535 | 59 | 266 | 0.0 | 2.0 | 0.00 | 0.00 | 0.00 | 75 | 1017.2 |
| 20260506152808 | 59 | 271 | 0.0 | 0.0 | 0.00 | 0.00 | 0.00 | 75 | 1017.2 |
| 20260506152309 | 59 | 306 | 0.0 | 0.0 | 0.00 | 0.00 | 0.00 | 75 | 1017.1 |
| 20260506151810 | 59 | 9 | 0.0 | 0.0 | 0.00 | 0.00 | 0.00 | 76 | 1017.2 |
| 20260506151306 | 59 | 0 | 0.0 | 0.0 | 0.00 | 0.00 | 0.00 | 78 | 1017.1 |
| 20260506150805 | 58 | 44 | 0.0 | 0.0 | 0.00 | 0.00 | 0.00 | 78 | 1017.2 |
| 20260506150306 | 58 | 119 | 0.0 | 0.0 | 0.00 | 0.00 | 0.00 | 79 | 1017.2 |
| 20260506145806 | 58 | 74 | 0.0 | 0.0 | 0.00 | 0.00 | 0.00 | 80 | 1017.2 |
| 20260506145306 | 57 | 159 | 0.0 | 0.0 | 0.00 | 0.00 | 0.00 | 80 | 1017.2 |
| 20260506144805 | 57 | 144 | 0.0 | 0.0 | 0.00 | 0.00 | 0.00 | 81 | 1017.2 |
| 20260506144307 | 56 | 171 | 0.0 | 0.0 | 0.00 | 0.00 | 0.00 | 82 | 1017.2 |
| 20260506143805 | 56 | 64 | 0.0 | 0.0 | 0.00 | 0.00 | 0.00 | 84 | 1017.1 |
| 20260506143307 | 56 | 64 | 0.0 | 0.0 | 0.00 | 0.00 | 0.00 | 84 | 1017.0 |
| 20260506142802 | 55 | 43 | 0.0 | 0.0 | 0.00 | 0.00 | 0.00 | 86 | 1017.1 |
| 20260506142300 | 54 | 111 | 0.0 | 0.0 | 0.00 | 0.00 | 0.00 | 88 | 1017.1 |
| 20260506142016 | 54 | 112 | 0.0 | 0.0 | 0.00 | 0.00 | 0.00 | 88 | 1017.0 |
| 20260506141301 | 53 | 112 | 0.0 | 0.0 | 0.00 | 0.00 | 0.00 | 89 | 1016.9 |
| 20260506140803 | 53 | 112 | 0.0 | 0.0 | 0.00 | 0.00 | 0.00 | 90 | 1016.9 |
| 20260506140303 | 53 | 106 | 0.0 | 0.0 | 0.00 | 0.00 | 0.00 | 91 | 1016.9 |
| 20260506135803 | 52 | 111 | 0.0 | 0.0 | 0.00 | 0.00 | 0.00 | 92 | 1016.9 |
| 20260506135306 | 52 | 113 | 0.0 | 0.0 | 0.00 | 0.00 | 0.00 | 94 | 1016.9 |
| 20260506134805 | 51 | 110 | 0.0 | 0.0 | 0.00 | 0.00 | 0.00 | 95 | 1016.8 |
| 20260506134301 | 51 | 111 | 0.0 | 0.0 | 0.00 | 0.00 | 0.00 | 95 | 1016.8 |
| 20260506133759 | 50 | 141 | 0.0 | 0.0 | 0.00 | 0.00 | 0.00 | 95 | 1016.8 |
| 20260506133301 | 50 | 141 | 0.0 | 0.0 | 0.00 | 0.00 | 0.00 | 95 | 1016.7 |
| 20260506132757 | 49 | 141 | 0.0 | 0.0 | 0.00 | 0.00 | 0.00 | 94 | 1016.6 |
| 20260506132258 | 49 | 141 | 0.0 | 0.0 | 0.00 | 0.00 | 0.00 | 94 | 1016.6 |
| 20260506131757 | 49 | 141 | 0.0 | 0.0 | 0.00 | 0.00 | 0.00 | 94 | 1016.5 |
| 20260506131748 | 49 | 141 | 0.0 | 0.0 | 0.00 | 0.00 | 0.00 | 94 | 1016.6 |
| 20260506130758 | 49 | 141 | 0.0 | 0.0 | 0.00 | 0.00 | 0.00 | 94 | 1016.5 |
| 20260506130258 | 49 | 141 | 0.0 | 0.0 | 0.00 | 0.00 | 0.00 | 93 | 1016.5 |
| 20260506125754 | 49 | 141 | 0.0 | 0.0 | 0.00 | 0.00 | 0.00 | 93 | 1016.5 |
| 20260506125516 | 49 | 155 | 0.0 | 0.0 | 0.00 | 0.00 | 0.00 | 94 | 1016.4 |
| 20260506125014 | 49 | 161 | 0.0 | 0.0 | 0.00 | 0.00 | 0.00 | 94 | 1016.3 |
| 20260506124253 | 49 | 237 | 0.0 | 0.0 | 0.00 | 0.00 | 0.00 | 93 | 1016.3 |
| 20260506123754 | 49 | 237 | 0.0 | 0.0 | 0.00 | 0.00 | 0.00 | 93 | 1016.3 |
| 20260506123253 | 49 | 237 | 0.0 | 0.0 | 0.00 | 0.00 | 0.00 | 93 | 1016.3 |
| 20260506122755 | 49 | 237 | 0.0 | 0.0 | 0.00 | 0.00 | 0.00 | 93 | 1016.3 |
| 20260506122739 | 49 | 237 | 0.0 | 0.0 | 0.00 | 0.00 | 0.00 | 93 | 1016.3 |
| 20260506122019 | 49 | 237 | 0.0 | 0.0 | 0.00 | 0.00 | 0.00 | 93 | 1016.3 |
| 20260506121250 | 50 | 237 | 0.0 | 0.0 | 0.00 | 0.00 | 0.00 | 93 | 1016.2 |
| 20260506120749 | 50 | 237 | 0.0 | 0.0 | 0.00 | 0.00 | 0.00 | 93 | 1016.3 |
| 20260506120250 | 50 | 237 | 0.0 | 0.0 | 0.00 | 0.00 | 0.00 | 93 | 1016.3 |
| 20260506115748 | 50 | 237 | 0.0 | 0.0 | 0.00 | 0.00 | 0.00 | 93 | 1016.3 |
| 20260506115249 | 50 | 237 | 0.0 | 0.0 | 0.00 | 0.00 | 0.00 | 93 | 1016.3 |
| 20260506115012 | 50 | 237 | 0.0 | 0.0 | 0.00 | 0.00 | 0.00 | 93 | 1016.2 |
| 20260506114252 | 50 | 237 | 0.0 | 0.0 | 0.00 | 0.00 | 0.00 | 93 | 1016.2 |
| 20260506113748 | 50 | 237 | 0.0 | 0.0 | 0.00 | 0.00 | 0.00 | 93 | 1016.2 |
| 20260506113736 | 50 | 237 | 0.0 | 0.0 | 0.00 | 0.00 | 0.00 | 93 | 1016.2 |
| 20260506112746 | 50 | 237 | 0.0 | 0.0 | 0.00 | 0.00 | 0.00 | 93 | 1016.2 |
| 20260506112509 | 50 | 237 | 0.0 | 0.0 | 0.00 | 0.00 | 0.00 | 93 | 1016.1 |
| 20260506111746 | 50 | 237 | 0.0 | 0.0 | 0.00 | 0.01 | 0.00 | 92 | 1016.1 |
| 20260506111245 | 50 | 237 | 0.0 | 0.0 | 0.00 | 0.01 | 0.00 | 93 | 1016.1 |
| 20260506110746 | 50 | 237 | 0.0 | 0.0 | 0.00 | 0.01 | 0.00 | 92 | 1016.1 |
| 20260506110244 | 50 | 237 | 0.0 | 0.0 | 0.00 | 0.02 | 0.00 | 93 | 1016.2 |
| 20260506105746 | 50 | 237 | 0.0 | 0.0 | 0.00 | 0.03 | 0.00 | 92 | 1016.1 |
| 20260506105506 | 50 | 237 | 0.0 | 0.0 | 0.00 | 0.03 | 0.00 | 92 | 1016.1 |
| 20260506104746 | 50 | 237 | 0.0 | 0.0 | 0.00 | 0.03 | 0.00 | 92 | 1016.1 |
| 20260506104242 | 50 | 237 | 0.0 | 0.0 | 0.00 | 0.03 | 0.00 | 92 | 1016.2 |
| 20260506103741 | 50 | 237 | 0.0 | 0.0 | 0.00 | 0.03 | 0.00 | 91 | 1016.0 |
| 20260506103505 | 50 | 237 | 0.0 | 0.0 | 0.00 | 0.03 | 0.00 | 92 | 1016.0 |
| 20260506103007 | 50 | 237 | 0.0 | 0.0 | 0.00 | 0.03 | 0.00 | 92 | 1016.1 |
| 20260506102240 | 50 | 237 | 0.0 | 0.0 | 0.00 | 0.03 | 0.00 | 91 | 1016.0 |
| 20260506102002 | 50 | 237 | 0.0 | 0.0 | 0.00 | 0.04 | 0.00 | 91 | 1016.0 |
| 20260506101458 | 50 | 237 | 0.0 | 0.0 | 0.00 | 0.04 | 0.00 | 92 | 1016.0 |
| 20260506100741 | 50 | 237 | 0.0 | 0.0 | 0.00 | 0.05 | 0.00 | 91 | 1016.0 |
| 20260506100244 | 50 | 237 | 0.0 | 0.0 | 0.00 | 0.05 | 0.00 | 91 | 1015.8 |
| 20260506095955 | 50 | 237 | 0.0 | 0.0 | 0.00 | 0.05 | 0.00 | 90 | 1016.0 |
| 20260506095459 | 50 | 237 | 0.0 | 0.0 | 0.00 | 0.05 | 0.00 | 91 | 1016.0 |
| 20260506094736 | 50 | 237 | 0.0 | 0.0 | 0.00 | 0.06 | 0.00 | 91 | 1016.0 |
| 20260506094237 | 50 | 237 | 0.0 | 0.0 | 0.00 | 0.06 | 0.00 | 91 | 1015.9 |
| 20260506093738 | 50 | 237 | 0.0 | 0.0 | 0.00 | 0.06 | 0.00 | 90 | 1015.9 |
| 20260506093240 | 50 | 237 | 0.0 | 0.0 | 0.00 | 0.06 | 0.00 | 90 | 1015.9 |
| 20260506092738 | 51 | 237 | 0.0 | 0.0 | 0.00 | 0.06 | 0.00 | 90 | 1015.9 |
| 20260506092236 | 51 | 237 | 0.0 | 0.0 | 0.00 | 0.06 | 0.00 | 91 | 1015.9 |
| 20260506091738 | 51 | 237 | 0.0 | 0.0 | 0.00 | 0.06 | 0.00 | 91 | 1016.0 |
| 20260506091234 | 50 | 237 | 0.0 | 0.0 | 0.00 | 0.06 | 0.00 | 92 | 1016.0 |
| 20260506090733 | 50 | 237 | 0.0 | 0.0 | 0.00 | 0.06 | 0.00 | 92 | 1016.0 |
| 20260506090454 | 50 | 237 | 0.0 | 0.0 | 0.00 | 0.06 | 0.00 | 92 | 1016.0 |
| 20260506085734 | 50 | 237 | 0.0 | 0.0 | 0.00 | 0.06 | 0.00 | 92 | 1016.0 |
| 20260506085234 | 50 | 237 | 0.0 | 0.0 | 0.00 | 0.06 | 0.00 | 92 | 1016.1 |
| 20260506084732 | 50 | 237 | 0.0 | 0.0 | 0.00 | 0.06 | 0.00 | 91 | 1016.2 |
| 20260506084232 | 50 | 237 | 0.0 | 0.0 | 0.00 | 0.06 | 0.00 | 91 | 1016.3 |
| 20260506083734 | 50 | 237 | 0.0 | 0.0 | 0.00 | 0.06 | 0.00 | 92 | 1016.4 |
| 20260506083234 | 50 | 237 | 0.0 | 0.0 | 0.00 | 0.06 | 0.00 | 91 | 1016.4 |
| 20260506082730 | 50 | 237 | 0.0 | 0.0 | 0.00 | 0.06 | 0.00 | 91 | 1016.4 |
| 20260506082451 | 51 | 237 | 0.0 | 0.0 | 0.00 | 0.06 | 0.00 | 91 | 1016.4 |